星链-35624(STARLINK-35624)

导读 | 豆包AI

STARLINK-35624是美国太空探索技术公司(SpaceX)于2025年10月25日发射的星链(Starlink)卫星,属于星链低轨互联网星座计划的一员。星链星座旨在为全球,尤其是传统网络基础设施匮乏的偏远地区提供高速低延迟宽带互联网服务。该星采用量产化设计,搭载霍尔推进器,具备自主避撞能力,寿命末期会主动离轨坠入大气层烧毁。

基本信息
目录编号:
66166
目录名称:
STARLINK-35624
国际标识:
2025-240W
轨道中心:
EARTH
卫星名称:
星链-35624
卫星全名:
星链-35624(STARLINK-35624)
卫星状态:
在轨 (已飞行212 天)
发射日期:
2025-10-25 UTC
国别 :
美国 (US)
星等 :
--
轨道信息
数据来源 国际轨道数据
星历时间: 2026-05-25T12:34:49+0800
6小时前
查看轨道信息
半长轴: 6840.936km
偏心率: 0.0001112
轨道倾角: 53.160°
近地点辐角 74.976°
升交点赤经 66.572°
平近点角 285.137°
近地点: 462.038km
远地点: 463.56km
周期: 93.850分钟
每日圈数: 15.343681
详细信息
固有亮度:
5
最大亮度:
2.5
卫星平台:
Starlink V1.0
覆盖范围:
全球
运营商:
太空探索技术公司
运营商所在国:
美国
制造商(研发单位):
太空探索技术公司
制造商所在国:
美国
使用方式:
暂无
卫星简介
Starlink 计划是 SpaceX 推出的全球卫星互联网项目,通过发射低轨道卫星,为全球尤其是偏远地区提供高速、低延迟的互联网服务。自 2019 年起,Starlink 已部署数千颗卫星,旨在缩小全球数字鸿沟,推动互联网普及。该项目还为军事、航空等行业提供通信支持,带来广泛经济效益。
2D轨道图
3D轨道图
轨道高度分析图
轨道倾角分析图
轨道综合分析图
查看轨道综合分析图